HI HI AE C7 88 55 00 D4 30 43 09 16 20 4F 7E 60 92 90 B0 78 B2 B0 B1 B0 AD 
HI HI AE C7 88 55 00 D4 CC 41 09 1A 37 29 7F 60 91 90 B0 93 B2 B0 B1 B0 AD 
HI HI AE C7 88 55 00 D4 93 3C 09 13 82 1D 7A 60 91 90 B0 77 B1 B0 B1 B0 AD 
HI HI AE C7 88 55 00 D4 8D 3E 09 14 91 43 6C 60 91 90 B0 6D B1 B0 B1 B0 AD 
HI HI AE C7 88 55 00 D4 7D 3A 09 39 67 53 83 5F 90 8A B0 97 B1 B0 B1 B0 AD 
HI HI AE C7 88 55 00 D4 87 39 09 2E 65 27 7F 60 91 90 B0 7D B1 B0 B1 B0 AD 
HI HI AE C7 88 55 00 D4 B1 38 09 27 63 1F 7C 5F 90 90 B0 7F BI B0 B1 B0 AD 
HI HI AE C7 88 55 00 D4 03 37 09 61 8E 3D 84 60 90 90 B0 8B B1 B0 B1 B0 AD 
HI HI AE C7 88 55 00 D4 15 37 09 62 8B 63 86 60 90 90 B0 83 B1 B0 B1 B0 AD 
HI HI AE C7 88 55 00 D4 DD 36 09 62 7D 59 93 60 90 90 B0 7A B1 AF D1 B0 AD 
HI HI AE C7 88 55 00 D4 BF 36 09 62 63 3A 8F 60 90 91 B0 7F B1 AF B1 B0 AE 
HI HI AE C7 88 55 00 D4 BB 36 09 62 78 33 82 60 90 91 B0 68 B1 AF B1 B0 AE 
HI HI AE C7 88 55 00 D4 D3 36 09 61 98 57 7E 60 90 91 B0 6F B1 AF B1 B0 AE 
HI HI AE C7 88 55 00 D4 F0 36 09 26 95 67 7E 61 90 92 B0 78 B1 AF B1 B0 AE  
HI HI AE C7 88 55 00 D4 2B 37 09 2C 72 6B 7E 61 91 92 B0 7B B1 AF B1 B0 AE 
HI HI AE C7 88 55 00 D4 11 37 09 O9 53 45 82 61 91 92 B0 77 B1 AF B1 B0 AE 
HI HI AE C7 88 55 00 D4 1D 36 09 3E 54 31 83 61 91 92 B0 7A B0 AF B0 B0 AE 
HI HI AE C7 88 55 00 D4 29 35 09 37 6F 42 82 61 91 93 B0 54 B1 AE B0 TE AE
HI HI AE C7 88 55 00 D4 D2 34 09 11 91 6D 7F 61 92 93 B0  

------------------------  FO-29の軌道要素 ------------------------------        
 
  ■ 軌道要素1:「jamsat−keps:1295」より         
          SB KEPS @ AMSAT  $ORB03100.N
          2Line Orbital Elements 03100.AMSAT

HR AMSAT ORBITAL ELEMENTS FOR AMATEUR SATELLITES IN NASA FORMAT
FROM WA5QGD FORT WORTH,TX April 10, 2003
SEND SUBSCRIBE/UNSUBSCRIBE TO majordomo@amsat.org ONLY
BID: ORB03100.N

 DECODE 2-LINE ELSETS WITH THE FOLLOWING KEY:
 1 AAAAAU 00  0  0 BBBBB.BBBBBBBB  .CCCCCCCC  00000-0  00000-0 0  DDDZ
 2 AAAAA EEE.EEEE FFF.FFFF GGGGGGG HHH.HHHH III.IIII JJ.JJJJJJJJKKKKKZ
 KEY: A-CATALOGNUM B-EPOCHTIME C-DECAY D-ELSETNUM E-INCLINATION F-RAAN
 G-ECCENTRICITY H-ARGPERIGEE I-MNANOM J-MNMOTION K-ORBITNUM Z-CHECKSUM

FO-29
1 24278U 96046B   03100.86831968  .00000062  00000-0  95717-4 0  5730
2 24278  98.5441 245.1392 0351504  83.5168 280.5859 13.52878677328241

 ■ 軌道要素2:「jamsat−keps:1296」より 
       SB KEPS @ AMSAT  $ORB03100.O
       Orbital Elements  03100.OSCAR

HR AMSAT ORBITAL ELEMENTS FOR OSCAR SATELLITES
FROM WA5QGD FORT WORTH,TX April 10, 2003
SEND SUBSCRIBE/UNSUBSCRIBE TO majordomo@amsat.org ONLY
BID: ORB03100.O
TO ALL RADIO AMATEURS BT
 
Satellite: FO-29
Catalog number: 24278
Epoch time:      03100.86831968
Element set:     573
Inclination:       98.5441 deg
RA of node:       245.1392 deg
Eccentricity:    0.0351504
Arg of perigee:    83.5168 deg
Mean anomaly:     280.5859 deg
Mean motion:   13.52878677 rev/day
Decay rate:        6.2e-07 rev/day^2
Epoch rev:           32824
Checksum:              337

-------------------  FO-29(JAS-2)のテレメトリに関する情報  ---------------------- 
 
2)上記2003年4月12日(土)のテレメトリの16:09のパスの最終行を分析して
 おきます。

AS32845C  12Apr2003
16:09-16:24(JST)
AOS   MEL  LOS  Elev
  5   286  208  51.4
Freq. 435.806-.787Hz
(JAS-2  No.120  A  1260-2040)

HI HI AE C7 88 55 00 D4 79 1F 09 45 49 7A 7D 61 92 92 B0 69 AE AB AC AC A9 
 
テレメトリ   内 容        換算算値 単 位
3C	磁気センサーZ軸=	35784.3	[nT]
3D	磁気センサX軸	=	59803.9	[nT]
4A	太陽電池発生電流=	1225.5	[mA]
4B	B充放電電流	=	-98.8	[mA]
4C	B端子電圧	=	15.7	[V]
4D	B中間端子電圧	=	7.0	[V]
5A	バス電圧	=	17.3	[V]
5B	JTA送信電力	=	584.4	[mW]
5C 	構体温度1	=	14.3	[℃]
5D	構体温度2	=	15.5	[℃]
6A	構体温度3	=	15.1	[℃]
6B	構体温度4	=	15.1	[℃]
6C	Bセル温度	=	16.2	[℃]

 ========================== FO-29(ふじ3号)のテレメトリ分析、QSO情報等 =====================
   
 3)[jamsat-bb:12920]FO-29 CW telemetryにおいて脇田美根夫氏がFO-29 のテレメトリ-の詳しい解析を
  されていましたので転載させて頂きました。

 2003年2月3日に受信された衛星 FO-29 の CWテレメトリ
を、プログラム『Fo29cwt2』を用いて解析してみました。

http://www.asahi-net.or.jp/~ei7m-wkt/numbr364.htm
http://www.ne.jp/asahi/hamradio/je9pel/fo29cwt2.zip

-------------------------------------------
Name: JE9PEL/1 脇田
Mail: ei7m-wkt@asahi-net.or.jp
URL : http://www.asahi-net.or.jp/~ei7m-wkt/
QTH : Yokohama, Japan
Date: Feb 7, 2003
-------------------------------------------
 =================================================================================================
 
 4)JARL のホームページに運用予定が記載されていましたのでご紹介します.
       ( http://www.jarl.or.jp/Japanese/3_Fuji/new/uy.htm )
       
        *** 運用予定について ***

        当分の間     アナログ系運用

  * なお,運用予定は都合により,変更することがありますの,であらかじめご了承願います。

 照会先 : lab@jarl.or.jp

 最新の情報はテレホンサービス(03−3942−1000)をお聞きください。  
  
  ふじ2号(JAS−1b)の運用 

 CWテレメトリの機能に障害が発生しています。詳細は「ふじ2号」の現況をご覧ください。
 運用はアナログ系の連続運用とします。 
     
-----------------------    FO−20(JAS-1b)道要素   -------------------------
  
  ■ 軌道要素1 :出典はFO-29「ふじ3号」に同じ.
  
FO-20
1 20480U 90013C   03100.29667424  .00000020  00000-0  12416-3 0  4759
2 20480  99.0552  53.5272 0539450 248.9659 105.2961 12.83331648617028
 
  ■ 軌道要素2 :出典はFO−29「ふじ3号」に同じ.
               
Satellite: FO-20
Catalog number: 20480
Epoch time:      03100.29667424
Element set:     475
Inclination:       99.0552 deg
RA of node:        53.5272 deg
Eccentricity:    0.0539450
Arg of perigee:   248.9659 deg
Mean anomaly:     105.2961 deg
Mean motion:   12.83331648 rev/day
Decay rate:        2.0e-07 rev/day^2
Epoch rev:           61702
Checksum:              291

-------------------------------------------------------------------------------- 
         ■ ふじ2号/FO−20/JAS-1b ■      
            
          「ふじ2号」 現況                                                                                  
             
   JAS-1b(ふじ2号)のCWテレメトリ信号に,1997年10月12日12時(JST)の
 日本上空通過時,3桁の数字が繰り返されるはずが3個の長音の繰り返しとなっているという
 異常が発見されました。この不具合は次の通過時からは回復していましたが13日15時20分の
 通過時に再び観測されました。現在はA0の送信が続いています。衛星のアナログ系中継モード
 動作は異常が無く,正常時のテレメトリ内容からは衛星の動作に異常は認められません。従って,
 直ちに衛星のミッションに影響することは無いと予想されますので,当面はアナログ系中継
 モードを継続します。衛星は既に打ち上げてから7年8ヶ月を経ておりますので,今後は監視を
 強化する予定です。アマチュア各位のレポートをお待ちします。
 -------------------------------------------------------------------------------- 
  1997年10月14日 00時35分 確認のテレメトリ音 151 KB (A0) 
  1997年10月14日 11時10分 確認のテレメトリ音 216 KB (異常キーイング) 

  以上 JARLのホ−ムページの http://www.jarl.or.jp/Japanese/3_Fuji/new/fuji.htm

===================== FO-20 ふじ2号 のテレメトリ観測結果 ====================

  12月20日(金)13:59(JST)の観測結果ではテレメトリは、以前観測した単一周波数の
正弦波がドップラー効果で周波数がずれていくのみの状態でした。
                                         
   =============   JAS-2 (ふじ3号)と現在までの情報   ===========
  
  A.電話によるふじ3号の運用情報
      社団法人日本アマチュア連盟によるサービス
           TEL .   03− 3942 − 1000
  B.アマチュア無線FAXサービス
      JARLによるふじ3号の軌道情報(オービットカレンダー)
         FAX No.  03− 3233 −0055
  C.WWWブラウザで情報を簡単に見れる人のためにJAS-1,JAS‐1b,
   JAS‐2(ふじ1号からふじ3号の衛星としての運用されるまでの名前)の
   概要、打ち上げまでの状況、運用中における状況を説明したホームページを
   紹介しておきます.

     社団法人日本アマチュア無線連盟(JARL)のホームページ

         http://www.jarl.or.jp/Japanese/3_Fuji/new/fuji.htm
     http://www.jarl.or.jp/Japanese/3_Fuji/history/history.htm
 
     宇宙開発事業団(NASDA)ホームページ 

      1)「ふじ1号」(JAS−1:FO−12)
         http://spaceboy.nasda.go.jp/lib/satellites/jas/j/jas_01_j.html
         http://spaceboy.nasda.go.jp/lib/satellites/jas/g/h_15_017.jpg
         http://spaceboy.nasda.go.jp/lib/satellites/jas/e/jas_01_e.html
         http://space.nasda.go.jp/db/kaihatu/eisei/eisei_j/jas_1_a_j.html#2
         http://spaceboy.nasda.go.jp/note/eisei/j/eis15h_j.html#eis15h_01_j
         http://www.nasda.go.jp/lib/nasda-news/1996/12/resai_j.html
         http://spaceboy.nasda.go.jp/lib/satellites/jas/g/h_15_007.jpg
         http://www.nasda.go.jp/press/2002/02/pb_020220_j.html

      2)「ふじ2号」(JAS−1b:FO−20)
         http://spaceboy.nasda.go.jp/lib/satellites/mos/g/h_21_018.jpg
         http://spaceboy.nasda.go.jp/lib/satellites/mos/g/h_21_019.jpg
         http://spaceboy.nasda.go.jp/note/eisei/j/eis15h_j.html#eis15h_01_j

      3)「ふじ3号」(JAS−2:FO−29)
         http://www.nasda.go.jp/lib/nasda-news/1996/09/h2_j.html
         http://www.nasda.go.jp/pr/services/presskit/h2-f4/p-h2_3_e.html
         http://space.nasda.go.jp/db/kaihatu/eisei/eisei_j/jas-2_j.html
         http://spaceboy.nasda.go.jp/note/eisei/j/eis15i_j.html#eis15i_03_j

  D.JAMSATによる軌道情報の活用
        JAMSATのホームページまたはjamsat−kepsの軌道要素より
      衛星の軌道情報を得る.
     JAMSATホームページ
               URL    http://www.jamsat.or.jp
       上記ホームページでは各地で行われるアマチュア通信衛星に関する
      ミューティングのお知らせや世界のアマチュア衛星に関する情報が
      満載されています.

 ========================================================================  
     JAMSATのメンバーのご協力によりJH6MME(高山 秀造)が
    執筆・編集を担当しております.ご指摘の意見、疑問やこのようにしたら
    というアイデアがありましたら小さなことでもかまいませんので気軽に下
    記アドレスまでご連絡ください.jamsat−newsからjas2
    infoへの転載をJH4PHW局坂井さんに担当して頂いております.  
                  E-mail : jh6mme@jamsat.or.jp : jh4phw@jamsat.or.jp
 ===============================   END  ===============================